RH
30 32 33 34 34 34 35 37 38 37 35 34 32 33 35 37 37 31 28 32 33 32 37 42 44 46 48 48 49 51 52 51 48 43 40 40 41 41 40 37 36 37 38 38 39 42 44 43 42 41 41 40 37 34 34 33 32 33 35 36 33 32 33 29 24 23 21 19 19 18 17 16 14 15 14 13 13 13 13 15 16 15 15 16 18 16 11
34 35 35 35 36 37 39 41 42 41 39 38 37 38 39 39 39 37 35 39 42 44 47 51 51 50 49 50 52 58 62 62 59 54 49 44 42 43 43 40 39 38 38 39 39 42 45 46 44 42 43 42 38 36 36 35 35 35 36 36 33 33 35 31 27 25 23 21 22 20 18 18 17 16 16 14 14 13 13 15 17 16 15 15 17 15 11
38 37 37 37 39 41 43 45 46 46 44 43 43 43 41 40 42 42 42 45 51 54 56 59 58 56 53 50 53 60 63 63 64 63 58 51 48 48 49 47 44 40 39 39 40 42 45 48 48 45 44 43 40 38 38 37 37 37 36 34 33 36 38 34 30 29 27 26 28 26 23 23 21 18 17 16 15 14 13 15 16 18 18 16 14 15 15
39 38 38 40 43 44 45 49 51 51 49 48 48 47 46 47 48 46 45 51 58 61 63 62 63 65 62 56 53 56 59 62 64 64 61 59 56 54 54 54 51 48 45 42 42 42 44 47 49 47 46 45 43 41 40 38 39 40 37 34 35 39 41 37 35 35 35 35 35 32 30 30 26 23 20 18 16 15 14 14 15 18 20 17 14 16 16
39 39 41 44 46 47 48 51 55 56 54 53 53 52 52 55 55 52 54 59 63 66 67 68 71 73 71 67 61 55 57 62 67 68 65 63 62 58 56 56 56 56 55 50 47 45 44 46 48 49 49 47 45 43 41 41 42 41 37 36 40 42 41 39 39 39 40 38 35 32 33 33 30 28 25 20 18 16 15 14 14 17 19 16 15 17 15
39 41 44 48 49 50 50 53 59 61 60 59 59 58 58 59 59 59 64 66 68 70 72 74 78 79 76 77 73 64 60 62 70 79 78 71 68 65 62 60 60 60 58 57 56 52 49 48 48 49 51 50 49 47 45 43 43 43 40 39 41 43 44 41 39 37 36 35 34 32 32 33 31 29 27 23 20 18 15 14 15 16 16 13 14 17 16
41 44 47 49 51 51 52 54 60 65 65 64 64 65 64 64 64 66 70 73 73 75 77 80 84 83 80 84 83 78 73 67 66 77 86 84 78 74 71 67 63 61 59 59 61 59 56 54 51 49 51 52 52 52 50 46 45 44 43 42 41 44 47 44 39 37 36 34 34 33 32 32 30 29 28 26 22 19 16 16 16 16 16 14 14 18 17
45 46 48 50 51 52 53 54 58 64 68 69 70 71 71 71 72 73 75 78 78 79 81 82 84 84 83 87 88 85 84 78 67 67 80 88 86 80 79 77 71 66 62 60 59 58 56 56 53 49 50 52 54 58 55 51 48 46 46 46 43 42 46 44 40 40 39 35 34 33 32 32 31 30 29 27 25 22 19 17 17 17 18 16 15 18 18
47 47 48 50 52 52 53 54 57 62 66 71 74 75 75 77 79 79 80 80 78 79 81 82 84 86 86 88 88 85 84 83 77 70 73 81 87 84 81 81 80 75 71 67 62 55 51 50 49 47 48 49 52 56 56 53 52 51 49 48 46 45 46 45 44 44 42 38 36 34 31 32 31 28 28 27 26 25 22 19 19 18 18 17 16 15 15
52 50 50 51 53 54 54 56 59 61 64 70 75 77 78 81 83 84 84 83 79 78 81 81 83 85 84 85 87 85 83 82 80 79 75 74 82 87 83 82 82 79 78 77 69 60 54 49 44 43 44 44 45 49 52 53 53 53 53 50 49 48 46 45 46 48 46 41 39 36 34 34 30 26 28 28 25 24 22 21 19 18 18 17 15 13 13
57 57 55 55 55 56 56 58 60 62 63 68 75 79 79 82 85 85 86 87 83 79 80 82 82 81 80 82 84 85 86 83 80 83 79 72 76 83 84 84 83 79 79 78 70 62 58 52 46 41 40 41 41 42 47 52 53 53 53 53 52 49 47 47 49 51 50 44 40 41 42 37 30 27 32 34 30 26 24 21 21 19 17 15 14 13 14
59 61 61 61 60 59 60 61 63 64 64 66 73 79 80 81 85 85 86 88 85 81 82 83 81 80 80 82 83 84 85 85 82 82 81 75 73 75 74 77 79 78 77 74 70 66 61 55 49 44 39 37 37 38 42 47 51 53 52 53 54 52 51 51 52 52 51 46 46 49 46 35 29 30 35 37 36 34 28 22 19 19 17 16 16 17 16
59 61 62 65 65 64 64 65 65 66 68 67 70 77 80 80 83 85 86 88 87 84 85 82 80 83 85 83 83 82 81 82 82 81 81 79 78 76 72 69 68 68 67 66 66 68 66 61 55 47 40 36 36 36 36 37 43 49 51 50 53 55 54 53 52 53 53 51 55 54 43 31 30 36 38 39 41 41 36 27 20 19 21 20 18 18 18
60 61 62 64 66 67 68 68 67 67 69 69 68 73 77 78 80 82 84 87 86 84 84 83 82 85 84 81 82 82 80 80 81 81 81 81 81 82 79 73 67 66 63 60 60 63 65 65 60 53 46 41 37 34 32 32 35 41 47 49 49 51 54 53 52 53 53 53 53 50 42 36 39 44 46 46 45 43 42 38 29 27 31 28 22 19 19
63 64 63 63 65 67 69 71 72 70 69 68 67 69 72 74 75 77 79 83 84 82 81 83 84 82 79 78 81 82 81 82 82 82 82 82 80 81 80 75 73 72 68 66 67 67 67 66 63 59 54 50 46 41 36 36 35 35 41 47 46 47 48 48 48 50 53 54 53 53 52 48 47 50 52 52 50 46 45 43 37 35 38 38 32 25 22
67 68 68 67 66 66 67 70 73 73 71 68 66 65 67 69 70 72 73 78 81 78 75 77 80 79 77 78 80 82 82 83 83 82 80 79 79 79 77 76 75 72 70 72 72 71 70 69 67 66 63 59 59 53 43 40 38 34 37 42 46 48 47 44 45 49 53 55 56 57 54 47 47 53 54 51 53 52 49 44 38 36 40 43 40 35 29
70 72 73 73 71 70 69 69 71 73 73 71 67 65 64 64 66 69 70 73 75 71 67 71 76 76 76 76 79 81 81 81 83 82 79 76 76 75 73 74 73 70 71 75 77 74 74 74 72 70 66 61 61 59 53 50 48 44 43 44 46 50 52 51 50 50 51 54 55 55 50 44 47 54 52 49 53 55 51 45 40 39 42 42 41 41 37
73 75 77 79 79 77 75 71 70 70 72 72 70 68 65 63 65 67 67 69 71 66 62 67 71 72 72 73 74 76 77 78 81 81 78 75 74 74 73 73 73 72 73 77 79 78 77 77 76 75 71 67 65 63 62 61 56 53 54 55 52 51 53 56 55 50 49 52 54 52 49 47 51 55 52 52 55 54 49 46 44 44 45 43 42 44 42
76 79 81 83 86 87 85 80 76 72 71 71 71 70 68 66 67 68 67 67 66 62 59 63 66 67 69 71 72 74 77 77 78 79 77 74 73 73 72 72 73 75 77 78 80 80 79 78 80 83 83 81 78 75 72 68 63 62 66 67 63 56 54 57 58 53 52 54 54 54 53 50 53 57 53 54 60 59 52 49 50 50 47 45 44 44 44
80 82 84 85 88 93 93 90 86 81 76 72 69 69 70 70 70 70 69 69 66 61 60 63 64 63 65 68 70 73 76 76 77 78 77 75 72 71 71 72 74 75 77 78 78 80 81 81 83 85 86 86 86 85 80 72 64 63 67 69 67 63 60 61 58 55 58 61 61 62 59 52 54 61 61 64 69 65 57 54 56 54 49 47 46 45 45
84 86 88 88 89 93 96 96 93 90 86 80 73 68 68 70 71 70 70 73 71 64 62 64 64 63 64 66 68 71 73 73 73 73 72 71 70 71 71 72 73 72 73 75 76 78 81 83 85 85 84 86 87 87 86 80 69 63 66 69 69 67 66 65 60 57 63 65 62 60 57 55 58 66 72 76 76 68 62 61 61 57 53 52 50 48 47
86 88 91 92 91 93 96 97 95 93 92 88 82 75 71 69 69 70 72 73 72 67 64 65 65 64 64 65 67 70 71 71 71 72 72 71 70 70 69 68 69 69 70 71 74 77 78 81 85 85 84 87 89 87 87 85 78 72 70 70 70 70 69 68 66 65 69 71 65 59 58 62 64 65 70 79 80 73 69 68 64 60 58 56 55 52 50
86 89 91 91 90 90 94 96 95 93 93 92 90 86 81 74 72 73 74 73 70 68 66 66 68 67 64 63 64 66 68 71 73 74 75 75 73 71 70 71 73 73 71 71 73 76 78 80 84 86 87 88 90 90 88 85 82 79 74 69 65 66 70 72 70 68 72 77 75 67 60 61 65 64 68 78 81 77 72 70 67 64 60 58 57 56 53
82 88 89 89 89 90 93 95 93 92 92 94 94 93 91 86 82 81 79 76 74 71 67 68 71 70 66 65 65 67 71 74 74 73 74 75 74 73 74 76 77 75 74 73 73 74 77 82 86 88 87 86 88 91 90 88 85 84 79 69 61 61 69 77 76 74 77 80 78 72 62 59 66 68 68 74 78 78 75 74 70 66 64 63 62 59 57
79 85 88 89 89 90 93 95 94 91 91 93 95 96 96 94 91 89 87 83 82 79 76 74 73 70 70 71 71 72 74 77 77 76 76 75 73 73 74 76 76 73 73 74 74 75 79 84 86 86 87 86 86 89 91 90 90 89 84 76 67 64 70 76 76 79 82 79 77 75 66 60 64 67 66 69 73 75 77 78 73 67 65 67 67 63 60
76 82 85 86 87 89 93 97 98 96 93 92 94 96 99 98 97 96 94 90 89 87 85 83 81 77 75 75 73 73 75 77 78 79 78 76 74 71 72 73 73 71 72 74 75 76 81 86 86 86 87 86 86 88 90 89 91 91 87 81 76 71 70 71 74 78 79 76 75 76 70 64 64 63 62 67 70 72 75 78 77 71 67 69 71 69 64
74 79 81 82 85 88 92 96 98 98 97 96 94 95 98 100 100 100 98 96 96 93 89 87 86 83 80 76 74 72 72 72 74 76 75 72 71 70 71 73 72 69 70 73 73 75 80 84 83 83 84 83 85 89 91 91 94 93 87 84 83 76 67 66 74 82 81 75 73 73 69 68 68 64 60 64 69 71 72 74 76 76 72 72 74 72 66
72 76 79 81 85 89 93 96 96 96 97 98 96 96 99 100 100 100 99 99 99 97 93 90 89 86 84 81 77 74 71 70 70 72 70 67 67 69 72 73 71 67 67 71 74 76 80 81 78 78 80 84 87 90 92 94 97 93 86 84 86 82 73 69 74 81 80 76 77 76 70 67 69 66 60 63 69 72 72 71 73 76 78 80 80 76 69
69 73 78 81 86 90 94 97 96 94 94 96 97 97 99 99 97 98 99 100 99 99 98 96 92 89 88 86 79 74 72 69 66 65 63 62 63 66 68 69 67 66 69 74 76 77 77 75 74 76 81 87 92 94 93 96 97 92 85 84 84 82 78 74 70 71 74 75 78 81 77 72 69 65 62 65 71 73 74 73 73 74 80 86 85 79 72
67 73 77 82 86 90 93 96 97 94 93 95 96 98 98 97 95 95 96 98 99 99 99 97 92 89 89 89 83 75 72 70 67 63 60 61 62 63 64 65 65 68 73 76 75 73 73 72 72 75 79 86 93 96 97 98 96 90 85 85 85 83 81 78 73 74 76 75 74 78 80 78 73 66 63 68 72 74 75 75 73 73 78 84 85 80 73
67 73 78 82 86 89 91 94 96 95 95 96 96 97 97 95 95 96 97 98 98 97 96 94 91 88 87 86 81 73 68 67 67 63 59 60 62 63 63 62 64 67 69 70 70 71 70 70 71 75 80 87 94 97 98 98 96 90 87 87 87 85 84 82 84 86 84 76 73 77 82 82 77 69 66 69 73 75 76 75 73 72 74 78 81 80 73
68 74 78 82 86 87 89 92 95 97 97 97 98 97 95 95 97 98 98 99 98 96 93 91 89 86 85 82 77 71 67 66 66 64 61 60 61 62 62 61 63 64 65 67 69 68 65 66 72 78 84 90 94 96 97 95 92 90 89 88 88 89 86 86 92 97 91 80 77 83 87 85 78 72 68 69 72 74 74 74 72 71 71 72 76 76 72
69 74 78 82 85 86 88 92 94 96 98 98 98 98 96 97 98 99 99 100 99 96 93 91 87 84 81 79 76 72 69 68 68 67 65 64 63 63 63 62 63 64 63 63 63 62 63 69 77 83 86 89 92 94 94 90 85 87 90 90 90 90 88 85 90 96 93 85 82 86 88 86 82 76 71 70 73 75 74 74 74 74 72 71 72 72 70
69 73 75 80 84 86 89 91 92 93 95 97 97 97 98 99 99 98 97 98 98 97 95 92 90 86 81 79 78 74 70 70 70 68 67 67 66 65 64 63 63 63 62 61 62 66 71 78 85 89 89 89 92 94 91 85 80 83 89 91 90 90 88 84 84 87 88 86 87 89 88 88 86 81 74 73 76 77 76 76 78 77 74 73 71 70 68
68 70 73 78 83 86 88 89 88 89 92 95 97 97 98 100 100 99 98 97 97 98 97 94 92 90 85 83 82 77 73 72 71 67 65 65 64 64 63 62 63 64 64 67 71 76 80 84 87 89 88 88 91 92 89 85 82 82 84 85 84 85 87 87 88 87 85 84 86 88 86 85 84 81 76 74 76 76 75 76 77 77 76 75 73 73 72
65 67 71 76 81 84 86 87 87 88 91 96 98 97 98 99 99 100 100 98 95 96 95 94 93 92 91 89 85 80 79 79 76 71 68 66 65 64 65 67 70 72 72 75 80 82 83 85 89 90 89 88 90 89 88 86 83 82 84 84 80 78 80 84 87 88 84 81 82 84 84 83 82 79 77 75 73 72 74 76 76 76 77 77 74 74 76
62 65 70 74 78 81 82 85 87 90 92 95 97 98 99 100 100 100 100 100 98 97 95 96 95 92 92 92 88 84 86 88 85 82 80 77 74 72 72 75 79 81 80 82 84 85 85 88 92 94 94 93 91 89 89 86 80 79 82 84 80 77 78 78 79 82 83 80 77 78 80 84 84 82 80 79 76 74 77 80 79 78 80 80 79 79 80
64 66 70 71 73 77 80 83 86 90 92 94 96 98 98 99 99 100 100 100 100 99 98 99 98 94 94 95 92 89 92 95 94 93 93 90 87 85 83 83 84 85 85 86 87 88 90 93 94 96 96 94 91 91 93 91 86 82 83 83 81 82 82 78 75 78 79 78 76 75 77 83 86 83 81 81 81 80 81 82 81 81 81 81 82 82 81
64 67 69 70 72 76 79 81 83 86 90 93 96 97 98 97 98 100 100 99 100 100 100 100 99 97 97 98 95 93 94 97 98 99 98 95 94 93 92 90 90 90 91 92 92 93 95 97 96 97 97 96 94 95 97 95 91 88 86 83 81 83 83 80 77 78 78 77 78 79 80 82 84 83 81 80 80 82 82 80 81 82 81 80 80 81 83
63 65 67 69 72 75 78 80 82 85 89 94 96 97 97 97 97 97 99 99 100 100 99 99 98 97 97 98 98 97 96 97 98 99 99 97 96 95 95 94 94 95 97 98 96 96 98 99 99 99 98 97 97 97 96 92 89 88 88 84 81 82 84 84 84 85 83 80 79 82 83 84 85 86 84 81 80 82 82 81 81 82 81 81 83 84 86
61 65 67 68 70 74 77 80 82 83 86 91 93 94 94 94 94 94 96 99 100 99 97 97 98 98 97 97 98 98 97 97 97 98 99 98 97 97 97 97 97 97 99 100 98 98 100 100 100 100 99 97 96 96 93 89 85 85 87 86 86 88 89 87 88 90 89 84 81 81 82 83 86 89 88 84 82 82 82 81 82 82 82 84 86 86 86
61 65 67 67 69 72 76 78 80 81 84 87 90 90 90 90 92 93 94 96 98 98 95 95 97 97 96 96 97 97 97 97 97 98 99 98 97 97 99 99 99 99 100 99 99 99 100 100 100 100 99 97 96 96 97 94 92 90 90 90 93 95 93 89 90 93 92 89 86 85 84 85 89 91 91 89 88 87 85 84 83 83 83 83 84 84 84
61 64 66 67 68 71 74 76 77 80 84 88 89 90 91 91 91 93 94 94 96 96 95 96 97 97 96 97 97 97 97 98 97 97 98 98 97 98 99 100 100 100 99 98 99 100 100 100 100 99 98 97 98 98 99 97 96 96 96 96 97 98 96 93 95 98 98 96 94 93 92 94 96 95 94 92 91 90 89 89 90 90 90 88 87 86 83
60 62 64 65 66 69 73 76 77 81 86 89 90 93 95 95 92 92 94 95 96 96 95 96 97 99 98 98 98 98 97 97 96 96 97 97 97 98 100 100 99 98 98 99 100 100 99 99 99 98 97 97 98 99 98 97 96 95 96 96 97 98 97 95 95 97 99 99 97 96 95 96 97 97 95 94 92 90 91 94 96 97 96 93 90 86 83
59 60 61 63 66 69 76 80 82 84 90 93 94 96 98 98 95 95 96 98 98 97 95 94 95 97 96 96 96 97 95 95 95 97 97 96 96 97 99 99 98 97 99 100 100 99 99 99 99 98 98 98 98 97 97 98 97 95 94 94 95 96 96 95 95 96 98 99 97 94 93 94 96 97 97 96 96 96 97 98 97 95 92 89 86 83 82
58 58 58 62 66 72 78 84 87 89 92 94 97 99 99 98 98 97 97 97 97 96 94 92 92 93 93 92 92 91 91 92 94 94 92 94 97 97 95 95 96 97 99 99 99 99 100 99 99 99 99 98 97 96 94 95 94 93 92 93 94 94 94 93 93 94 95 96 96 95 95 95 97 98 98 98 98 98 98 97 95 92 88 85 83 84 84
57 57 58 62 68 74 79 84 88 89 89 91 93 95 96 95 95 94 94 92 93 92 89 87 87 88 88 87 87 87 87 87 89 89 89 91 94 93 91 93 96 98 99 100 100 99 99 99 99 99 97 95 94 93 92 92 91 91 91 92 92 92 91 91 90 90 91 92 94 94 94 94 95 95 95 94 95 96 95 94 92 90 89 87 86 87 87
55 56 59 64 70 75 80 83 84 84 84 86 88 90 90 91 91 92 91 89 88 88 86 84 84 85 84 83 84 86 84 83 86 87 86 87 89 89 90 93 97 98 99 100 100 100 100 100 98 96 93 91 91 91 90 90 89 89 88 89 90 90 90 90 89 89 89 89 90 90 90 90 90 90 90 91 92 93 93 91 89 88 87 86 86 86 86
52 55 59 65 69 72 75 77 77 77 78 80 82 83 84 85 87 89 89 87 85 84 83 80 81 83 83 81 81 82 81 82 86 87 86 88 92 95 95 97 99 99 100 100 100 100 100 98 96 93 91 90 91 91 90 90 89 88 88 87 87 86 87 87 87 87 88 88 88 87 87 87 86 86 87 88 88 89 89 88 85 84 83 82 81 82 82
48 50 55 61 65 66 66 67 68 69 71 73 74 75 78 80 83 84 85 85 84 82 80 78 78 80 80 79 81 82 82 84 88 89 89 92 97 99 98 99 100 100 100 100 100 100 100 97 94 92 90 89 88 89 89 88 88 87 87 87 86 85 85 85 85 85 86 87 88 88 87 86 86 86 85 86 85 84 83 82 80 78 78 78 77 76 76
46 47 49 53 59 62 62 63 64 66 68 70 71 72 74 76 77 78 79 80 79 78 77 78 79 79 77 79 83 85 84 85 87 89 91 94 97 98 98 99 100 99 100 99 98 98 99 97 95 93 92 90 88 88 87 87 87 87 86 86 85 85 85 85 85 84 85 86 87 87 87 87 87 85 84 83 82 81 80 81 80 79 78 78 77 76 76
46 46 46 47 50 54 56 58 60 62 63 64 64 65 67 69 72 72 71 69 68 70 72 74 76 77 79 83 86 86 84 84 86 88 90 92 95 97 99 101 99 98 99 98 95 94 94 93 92 91 90 89 88 88 87 86 86 85 84 83 83 82 82 82 83 84 84 84 85 86 87 88 88 86 84 84 85 84 83 83 82 81 79 79 79 78 77